                ,  0.937,  1.134,  1.331,  1.528,  1.725,  1.922,  2.119,  2.316,  2.513,  2.711,  2.908,  3.105,  3.302,  3.499,  3.696,  3.893,  4.090,  4.287,  4.484,  4.681,  4.878,  5.076,  5.273,  5.470,  5.667,  5.864,  6.061,  6.258,  6.455,  6.652,  6.849,  7.046,  7.243,  7.441,  7.638,  7.835,  8.032,  8.229,  8.426,  8.623,  8.820,  9.017,  9.214,  9.411,  9.608,  9.806
2000/05/19 00:00,  999.0,  999.0,  999.0,  999.0,  999.0,  999.0,  999.0,  999.0,  999.0,  999.0,  999.0,  999.0,  999.0,  999.0,  999.0,  999.0,  999.0,  999.0,  999.0,  999.0,  999.0,  999.0,  999.0,  999.0,  999.0,  999.0,  999.0,  999.0,  999.0,  999.0,  999.0,  999.0,  999.0,  999.0,  999.0,  999.0,  999.0,  999.0,  999.0,  999.0,  999.0,  999.0,  999.0,  999.0,  999.0,  999.0
2000/05/19 00:10,  999.0,  999.0,  999.0,  999.0,  999.0,    4.2,  999.0,  999.0,  999.0,  999.0,  999.0,  999.0,  999.0,  999.0,  999.0,  999.0,  999.0,  999.0,  999.0,  999.0,    0.0,    0.0,  999.0,  999.0,  999.0,  999.0,  999.0,  999.0,  999.0,  999.0,  999.0,  999.0,  999.0,  999.0,  999.0,  999.0,  999.0,  999.0,  999.0,  999.0,  999.0,  999.0,  999.0,  999.0,  999.0,  999.0
2000/05/19 00:20,  999.0,  999.0,  999.0,  999.0,  999.0,  999.0,  999.0,    3.4,    3.4,  999.0,  999.0,  999.0,  999.0,  999.0,  999.0,  999.0,  999.0,  999.0,  999.0,  999.0,  999.0,  999.0,  999.0,  999.0,  999.0,  999.0,  999.0,  999.0,  999.0,  999.0,  999.0,  999.0,  999.0,  999.0,  999.0,  999.0,  999.0,  999.0,  999.0,  999.0,  999.0,  999.0,    0.1,  999.0,  999.0,  999.0
2000/05/19 00:30,  999.0,  999.0,  999.0,  999.0,  999.0,  999.0,  999.0,  999.0,  999.0,  999.0,  999.0,  999.0,  999.0,  999.0,  999.0,  999.0,  999.0,  999.0,  999.0,  999.0,  999.0,  999.0,  999.0,  999.0,  999.0,  999.0,  999.0,  999.0,   -0.9,   -0.6,    1.6,  999.0,    1.0,    1.5,    2.6,    2.5,  999.0,  999.0,  999.0,  999.0,  999.0,  999.0,  999.0,  999.0,  999.0,  999.0
2000/05/19 00:40,  999.0,  999.0,  999.0,  999.0,  999.0,  999.0,  999.0,  999.0,  999.0,  999.0,  999.0,  999.0,  999.0,  999.0,  999.0,  999.0,  999.0,  999.0,  999.0,  999.0,  999.0,  999.0,  999.0,  999.0,  999.0,  999.0,  999.0,  999.0,   -0.5,   -0.1,  999.0,    1.2,    1.3,    1.9,    3.4,    3.0,    2.7,  999.0,  999.0,  999.0,  999.0,    0.1,   -0.0,  999.0,    0.1,    0.0
2000/05/19 00:50,    3.0,  999.0,  999.0,  999.0,  999.0,    4.2,  999.0,  999.0,  999.0,  999.0,  999.0,  999.0,  999.0,  999.0,  999.0,  999.0,  999.0,  999.0,  999.0,  999.0,  999.0,  999.0,  999.0,  999.0,  999.0,  999.0,  999.0,   -0.5,   -0.2,   -0.0,    2.1,    0.8,    1.7,    1.9,    2.8,  999.0,    2.6,  999.0,  999.0,  999.0,   -0.0,    0.1,  999.0,    0.0,    0.0,  999.0
2000/05/19 01:00,    7.2,  999.0,  999.0,  999.0,  999.0,  999.0,    4.8,  999.0,  999.0,  999.0,  999.0,  999.0,  999.0,  999.0,  999.0,  999.0,  999.0,  999.0,  999.0,  999.0,  999.0,  999.0,  999.0,  999.0,  999.0,  999.0,  999.0,   -0.1,    0.1,    0.8,  999.0,    1.3,    2.3,    2.2,    2.8,    2.3,    2.9,    4.4,    6.0,  999.0,  999.0,  999.0,  999.0,  999.0,  999.0,  999.0
2000/05/19 01:10,  999.0,  999.0,  999.0,  999.0,  999.0,  999.0,  999.0,  999.0,  999.0,  999.0,  999.0,  999.0,  999.0,  999.0,  999.0,  999.0,  999.0,  999.0,  999.0,  999.0,  999.0,  999.0,  999.0,  999.0,  999.0,  999.0,   -1.3,   -0.0,    0.3,  999.0,  999.0,  999.0,  999.0,    2.3,    2.9,    2.6,    3.3,    4.9,    5.9,  999.0,  999.0,  999.0,  999.0,  999.0,  999.0,  999.0
2000/05/19 01:20,  999.0,  999.0,  999.0,  999.0,  999.0,    5.9,  999.0,  999.0,  999.0,  999.0,  999.0,  999.0,  999.0,  999.0,  999.0,  999.0,  999.0,  999.0,  999.0,  999.0,  999.0,  999.0,  999.0,  999.0,  999.0,  999.0,   -0.5,   -0.1,    0.3,  999.0,  999.0,    1.4,    2.3,    2.9,    3.0,    2.8,    3.2,    4.4,    4.8,  999.0,  999.0,  999.0,  999.0,  999.0,  999.0,  999.0
2000/05/19 01:30,  999.0,  999.0,    6.8,  999.0,  999.0,  999.0,  999.0,  999.0,    3.2,  999.0,  999.0,  999.0,  999.0,  999.0,  999.0,  999.0,  999.0,  999.0,  999.0,  999.0,  999.0,  999.0,  999.0,  999.0,    3.1,    4.5,    0.9,    0.3,    0.8,    1.7,    2.1,    1.6,    2.3,    3.0,    3.5,    3.1,    4.3,    4.9,    5.3,    5.6,    7.0,    6.3,  999.0,  999.0,    3.9,    8.1
2000/05/19 01:40,  999.0,  999.0,  999.0,  999.0,  999.0,  999.0,  999.0,  999.0,    3.3,  999.0,  999.0,  999.0,  999.0,  999.0,  999.0,  999.0,  999.0,  999.0,  999.0,  999.0,  999.0,  999.0,  999.0,  999.0,    0.9,    2.5,    1.7,    0.4,    1.7,    2.5,    2.6,  999.0,    2.3,    2.8,    3.5,    3.1,    3.8,    3.9,    4.8,    6.4,    6.9,    6.2,    4.7,    3.8,    4.1,    8.1
2000/05/19 01:50,  999.0,  999.0,    8.1,  999.0,  999.0,    7.8,  999.0,  999.0,    3.1,  999.0,  999.0,    2.0,  999.0,  999.0,  999.0,  999.0,  999.0,  999.0,  999.0,  999.0,  999.0,  999.0,  999.0,   -0.3,   -0.1,   -0.9,   -1.3,    0.5,    2.0,    2.8,  999.0,    2.0,    2.3,    2.4,    3.4,    3.5,    3.8,    4.1,    5.1,    6.6,    7.3,    5.9,    4.2,    3.7,    6.3,    9.1
2000/05/19 02:00,  999.0,  999.0,  999.0,  999.0,    8.8,  999.0,  999.0,  999.0,  999.0,  999.0,  999.0,  999.0,  999.0,  999.0,  999.0,    4.8,  999.0,  999.0,  999.0,  999.0,  999.0,  999.0,  999.0,   -0.3,   -0.4,   -0.5,    0.4,    0.6,    2.5,    3.2,    2.9,    2.6,    2.7,    2.3,    4.0,    4.4,    3.9,    4.3,    6.0,    8.0,    7.5,    6.4,    5.2,    4.4,    7.0,  999.0
2000/05/19 02:10,  999.0,  999.0,  999.0,  999.0,  999.0,  999.0,    5.9,    9.3,  999.0,    3.1,  999.0,  999.0,  999.0,  999.0,  999.0,  999.0,  999.0,  999.0,  999.0,  999.0,  999.0,  999.0,   -0.9,   -0.7,  999.0,   -2.6,   -0.0,    1.5,    3.1,    3.8,  999.0,  999.0,    3.0,    2.7,    4.3,    4.1,    3.8,    5.1,    7.0,    8.5,    8.1,    7.6,    6.3,    4.9,    8.5,  999.0
2000/05/19 02:20,  999.0,  999.0,  999.0,  999.0,  999.0,  999.0,  999.0,  999.0,  999.0,  999.0,  999.0,  999.0,  999.0,  999.0,  999.0,  999.0,  999.0,  999.0,  999.0,  999.0,  999.0,  999.0,  999.0,    2.5,  999.0,  999.0,    2.1,    0.8,    2.9,    3.3,    3.5,  999.0,    3.4,    2.9,    5.1,    4.7,    4.4,    5.8,    7.8,    8.1,    8.5,    8.2,    6.8,    4.9,    8.1,  999.0
2000/05/19 02:30,  999.0,  999.0,  999.0,  999.0,    5.2,    5.1,    5.6,  999.0,  999.0,  999.0,  999.0,  999.0,  999.0,  999.0,  999.0,  999.0,  999.0,  999.0,  999.0,  999.0,  999.0,    1.5,   -0.1,   -0.9,   -1.4,   -0.9,    1.2,    2.5,  999.0,  999.0,  999.0,  999.0,    3.3,    3.4,    5.4,    4.9,    5.0,    6.1,    7.3,    8.1,    8.5,    7.5,    6.4,    5.9,    9.6,  999.0
2000/05/19 02:40,  999.0,    1.7,    4.4,  999.0,    4.8,    5.2,  999.0,    3.8,  999.0,  999.0,  999.0,  999.0,  999.0,  999.0,  999.0,  999.0,  999.0,  999.0,  999.0,  999.0,  999.0,   -0.5,    3.0,    4.5,    1.8,    0.4,    0.6,    2.0,    4.8,    3.2,    3.7,  999.0,    3.2,    3.4,    5.5,    4.8,    5.5,    5.9,    6.7,    8.1,    8.2,    7.8,    7.1,    6.5,    9.6,  999.0
2000/05/19 02:50,  999.0,  999.0,  999.0,  999.0,  999.0,    5.6,    5.4,  999.0,  999.0,  999.0,  999.0,  999.0,  999.0,  999.0,    5.3,    1.7,  999.0,  999.0,  999.0,  999.0,  999.0,    2.1,    2.8,   -2.8,   -5.5,   -2.9,    0.5,    2.4,    4.5,    3.4,    3.8,  999.0,    2.4,    4.0,    5.3,    5.4,    5.7,    6.2,    7.4,    7.7,    8.6,    8.8,    8.4,    7.5,   10.3,   11.9
2000/05/19 03:00,  999.0,  999.0,  999.0,  999.0,    5.2,    5.7,    6.3,    4.3,  999.0,  999.0,  999.0,  999.0,  999.0,  999.0,  999.0,  999.0,  999.0,  999.0,  999.0,  999.0,    1.6,    3.1,    4.2,    7.4,    7.1,  999.0,  999.0,  999.0,    4.2,    3.6,    3.9,    3.7,    2.8,    4.4,    5.1,    4.9,    5.3,    6.3,    6.6,    7.9,    8.9,    9.3,    9.3,    9.0,   10.0,   11.5
2000/05/19 03:10,  999.0,  999.0,  999.0,  999.0,  999.0,    6.1,  999.0,    4.8,  999.0,  999.0,  999.0,  999.0,  999.0,  999.0,  999.0,  999.0,  999.0,  999.0,  999.0,  999.0,    1.4,    2.3,    3.5,    2.6,    3.8,    0.6,    0.2,  999.0,    3.6,    3.9,  999.0,  999.0,    3.2,    4.9,    5.2,    4.8,    4.6,    5.4,    6.2,    7.1,    8.2,    8.8,    9.6,   10.0,   10.7,  999.0
2000/05/19 03:20,  999.0,  999.0,  999.0,  999.0,  999.0,  999.0,  999.0,  999.0,  999.0,  999.0,  999.0,  999.0,  999.0,  999.0,  999.0,  999.0,  999.0,  999.0,  999.0,  999.0,  999.0,  999.0,    3.2,  999.0,  999.0,    0.1,    0.5,  999.0,    3.8,  999.0,  999.0,  999.0,    3.8,    5.2,    4.8,    4.4,    4.1,    5.3,    5.5,    6.0,    7.2,    8.2,    9.5,    9.8,   10.5,   11.4
2000/05/19 03:30,    2.0,  999.0,  999.0,  999.0,    5.7,  999.0,  999.0,    4.6,  999.0,  999.0,  999.0,  999.0,  999.0,  999.0,  999.0,  999.0,  999.0,  999.0,  999.0,  999.0,  999.0,  999.0,    2.1,    4.1,    5.3,    2.0,    2.0,    4.4,    4.3,    4.7,  999.0,  999.0,    3.9,    5.1,    4.7,    3.7,    4.4,    5.5,    5.7,    5.4,    6.5,    8.0,    9.2,   10.3,   11.0,   10.5
2000/05/19 03:40,  999.0,  999.0,  999.0,  999.0,  999.0,    4.1,    4.5,  999.0,  999.0,    2.1,    4.2,  999.0,  999.0,  999.0,  999.0,  999.0,  999.0,  999.0,  999.0,    3.5,    3.2,    0.8,   -1.9,   -0.8,    2.0,    1.7,    3.0,    4.5,    4.4,  999.0,    5.3,    3.9,    4.1,    5.3,    4.3,    3.3,    4.8,    6.4,    6.1,    5.6,    7.1,    8.6,    9.1,    9.9,   10.9,  999.0
2000/05/19 03:50,  999.0,    1.9,  999.0,  999.0,    5.5,    4.9,    5.4,    3.7,  999.0,  999.0,    6.0,  999.0,  999.0,  999.0,  999.0,  999.0,  999.0,  999.0,  999.0,    2.7,    1.8,    1.0,    2.1,    3.8,    1.9,    0.6,    4.0,    4.6,    4.8,  999.0,    5.0,    3.6,    4.7,    5.1,    4.0,    3.6,    5.5,    6.7,    6.0,    5.4,    7.2,    8.6,    8.7,    9.1,   10.7,   11.5
2000/05/19 04:00,  999.0,  999.0,  999.0,    2.7,  999.0,    4.6,  999.0,  999.0,  999.0,  999.0,  999.0,  999.0,  999.0,  999.0,  999.0,  999.0,  999.0,  999.0,    1.8,    2.9,    1.8,    2.2,    3.4,    4.6,    0.6,    1.4,    4.0,    5.0,    5.1,    6.0,    4.2,    4.0,    5.4,    4.9,    3.7,    4.2,    5.6,    5.7,    5.1,    5.3,    7.6,    8.9,    9.9,   11.1,   11.0,   11.2
2000/05/19 04:10,  999.0,  999.0,  999.0,  999.0,  999.0,    4.6,    5.1,  999.0,  999.0,  999.0,  999.0,  999.0,  999.0,  999.0,  999.0,  999.0,  999.0,  999.0,    4.2,    1.8,    3.8,    2.8,    5.3,    7.4,    1.3,    2.5,    5.2,    5.5,    5.6,    6.1,    3.9,    4.3,    5.5,    4.6,    4.0,    5.2,    5.4,    4.5,    4.1,    6.7,  999.0,  999.0,  999.0,  999.0,  999.0,  999.0
2000/05/19 04:20,  999.0,    1.8,  999.0,  999.0,  999.0,    5.1,    4.9,  999.0,  999.0,  999.0,  999.0,  999.0,  999.0,  999.0,  999.0,  999.0,  999.0,    5.2,  999.0,    2.7,   -0.0,  999.0,  999.0,    0.9,    0.3,    3.4,    4.9,    5.4,  999.0,  999.0,  999.0,    4.3,    5.4,    4.5,    4.4,    5.3,    5.0,    3.9,    5.0,    7.3,    8.9,    9.4,   11.0,    9.5,    9.7,    9.2
2000/05/19 04:30,    2.0,    1.4,  999.0,  999.0,  999.0,  999.0,  999.0,  999.0,  999.0,  999.0,  999.0,  999.0,  999.0,  999.0,  999.0,  999.0,  999.0,    3.4,    3.9,    5.1,    4.1,    2.3,    3.0,    2.5,  999.0,  999.0,    5.9,    6.2,    6.9,    6.1,  999.0,    4.8,    6.0,    4.6,    4.8,    4.5,    5.4,    4.7,    5.6,    7.5,    8.4,    9.7,   10.0,    8.8,  999.0,  999.0
2000/05/19 04:40,  999.0,  999.0,  999.0,  999.0,  999.0,  999.0,    4.5,  999.0,  999.0,  999.0,  999.0,  999.0,  999.0,  999.0,  999.0,  999.0,  999.0,  999.0,    4.6,    3.2,    4.0,  999.0,  999.0,    3.2,    2.9,  999.0,    6.1,    6.2,    8.1,  999.0,  999.0,    5.6,    6.5,    5.0,    4.6,    4.5,    5.8,    5.3,    5.6,    8.4,    9.3,    9.7,    9.5,    9.8,   10.1,   10.9
2000/05/19 04:50,  999.0,  999.0,  999.0,  999.0,  999.0,  999.0,  999.0,  999.0,    1.8,  999.0,  999.0,  999.0,  999.0,  999.0,  999.0,  999.0,  999.0,  999.0,    3.1,    3.6,  999.0,    4.8,    3.7,    1.9,    2.0,    4.9,  999.0,  999.0,    7.8,    5.9,    4.4,    5.2,    6.2,    4.9,    3.9,    5.2,    7.3,    5.9,    7.3,    9.3,   10.0,   10.2,   10.2,   11.0,   11.0,   11.5
2000/05/19 05:00,  999.0,  999.0,    2.4,  999.0,  999.0,    4.2,    4.3,  999.0,  999.0,  999.0,  999.0,  999.0,  999.0,  999.0,  999.0,  999.0,  999.0,  999.0,  999.0,  999.0,  999.0,  999.0,    2.5,    2.0,    2.8,  999.0,    6.1,  999.0,    7.8,    5.8,  999.0,    4.5,    5.7,    4.6,    3.9,    6.4,    7.0,    6.9,    8.8,   10.4,   11.2,   11.5,   11.1,   11.4,   11.5,   11.6
2000/05/19 05:10,  999.0,  999.0,  999.0,  999.0,  999.0,    4.0,    4.9,    2.8,  999.0,   -0.2,  999.0,  999.0,  999.0,  999.0,  999.0,  999.0,  999.0,  999.0,    2.9,    2.6,  999.0,    5.3,  999.0,    1.8,    1.6,  999.0,  999.0,    7.0,  999.0,    5.7,  999.0,    5.0,    6.0,    4.9,    4.3,    6.9,    7.7,    7.2,    9.3,   11.0,   12.2,   12.6,   12.5,   11.8,   12.5,   13.4
2000/05/19 05:20,  999.0,  999.0,  999.0,  999.0,  999.0,  999.0,    4.1,    3.5,  999.0,  999.0,  999.0,  999.0,  999.0,  999.0,  999.0,  999.0,  999.0,  999.0,  999.0,  999.0,  999.0,  999.0,  999.0,    0.6,    2.5,    5.3,  999.0,    6.9,    8.0,    4.8,  999.0,    5.8,    6.3,    5.0,    4.5,    7.1,    8.3,    7.6,    9.3,   10.7,   12.1,   13.0,   13.4,   13.4,   13.6,   14.2
2000/05/19 05:30,  999.0,  999.0,    1.7,    2.0,    3.7,    4.0,    4.1,    3.5,    1.4,  999.0,  999.0,  999.0,  999.0,  999.0,  999.0,  999.0,  999.0,    3.9,  999.0,    6.7,    3.7,    3.0,    1.6,    1.9,  999.0,  999.0,    7.5,    7.6,    7.4,  999.0,    4.4,    6.0,    6.0,    5.0,    5.0,    7.6,    8.8,    7.7,    8.2,    9.8,   11.0,   12.6,   13.4,   13.5,   14.0,   14.2
2000/05/19 05:40,  999.0,    1.5,    1.5,    2.3,  999.0,    4.4,    4.1,    3.8,    1.9,  999.0,  999.0,  999.0,  999.0,  999.0,  999.0,  999.0,  999.0,  999.0,  999.0,    6.0,    4.2,    2.9,    1.8,  999.0,    4.6,  999.0,    7.4,    7.8,    6.9,  999.0,    4.9,    6.3,    6.4,    4.7,    5.6,    7.8,    8.2,    6.8,    8.0,    9.6,   10.6,   12.2,   12.8,   13.5,   13.0,   13.0
2000/05/19 05:50,    2.5,  999.0,  999.0,    2.8,    4.4,    4.2,    4.0,    3.5,  999.0,  999.0,  999.0,  999.0,  999.0,  999.0,   -2.0,  999.0,  999.0,    1.1,  999.0,    4.8,    3.8,    2.9,    0.8,    1.5,  999.0,  999.0,    7.5,    8.2,    6.4,    3.6,    5.2,    6.7,    6.3,    4.6,    6.2,    7.6,    7.1,    6.1,    7.8,    9.6,   10.8,   12.0,   12.0,   11.6,   10.7,   12.1
2000/05/19 06:00,    2.7,  999.0,    3.1,    3.5,    4.8,    4.5,    4.0,    3.3,    1.8,  999.0,  999.0,  999.0,  999.0,  999.0,  999.0,  999.0,   -1.0,    0.7,    4.3,    2.7,    3.7,    2.7,  999.0,    2.2,    4.8,  999.0,    8.1,    8.7,    6.2,  999.0,    5.6,    7.1,    6.0,    3.9,    6.2,    6.8,    5.7,    6.7,    8.4,    9.9,  999.0,   11.3,   10.6,   10.9,    9.8,    9.5
2000/05/19 06:10,    2.5,  999.0,    3.6,    4.0,    5.0,    5.0,  999.0,    4.6,  999.0,  999.0,  999.0,  999.0,  999.0,  999.0,  999.0,  999.0,    0.2,  999.0,    3.8,    3.8,    3.1,    2.3,    2.2,  999.0,    5.4,  999.0,    8.7,    8.7,    5.8,  999.0,    5.9,    7.0,    5.2,    3.9,    5.7,    6.0,    5.9,    7.2,    9.0,   10.6,   11.9,   10.7,    9.8,    9.7,   10.6,   10.6
2000/05/19 06:20,    2.9,  999.0,    3.8,    4.4,    4.9,    5.1,    4.8,    5.1,  999.0,  999.0,  999.0,  999.0,  999.0,  999.0,  999.0,  999.0,    1.8,    0.6,  999.0,  999.0,    3.7,    2.4,    2.2,    2.6,  999.0,  999.0,    9.2,  999.0,    5.8,  999.0,    5.5,    6.9,    5.1,    4.6,    5.9,    6.1,    6.2,    8.2,    9.9,   10.9,   12.1,   10.6,   10.4,  999.0,   11.8,   11.5
2000/05/19 06:30,    2.7,    2.6,    3.8,    4.7,    5.2,    5.3,    4.9,    4.3,  999.0,  999.0,  999.0,  999.0,  999.0,  999.0,  999.0,  999.0,  999.0,   -2.4,   -3.3,   -2.9,   -0.3,    2.1,    1.7,    4.0,  999.0,    9.2,  999.0,    9.6,  999.0,  999.0,    5.6,    7.1,    5.5,    5.2,    6.0,    6.8,    7.5,    9.0,   10.8,   11.8,   11.4,   11.3,   11.9,   12.0,  999.0,  999.0
2000/05/19 06:40,  999.0,  999.0,    3.6,  999.0,    5.1,    5.0,    4.7,    4.5,  999.0,    1.0,  999.0,  999.0,  999.0,  999.0,   -1.7,  999.0,  999.0,    2.0,  999.0,    2.2,    3.3,    1.7,    1.4,  999.0,    6.9,  999.0,  999.0,    8.6,  999.0,  999.0,    6.3,    7.0,    5.5,    6.0,    6.8,    7.1,    8.7,   10.5,   11.9,   12.5,   12.5,   13.2,   13.8,   13.7,  999.0,  999.0
2000/05/19 06:50,    3.7,    2.3,    2.9,  999.0,    4.1,    4.8,    4.9,    4.4,    4.8,  999.0,  999.0,  999.0,  999.0,  999.0,   -2.5,   -3.1,   -0.6,    0.9,    4.1,    2.4,    2.5,    0.7,    0.0,    4.3,  999.0,  999.0,  999.0,  999.0,  999.0,  999.0,    6.4,    7.2,    5.6,    6.5,    6.7,    7.8,    9.8,   11.5,   12.4,   12.9,   12.7,   13.1,   14.0,   13.6,   12.9,   13.4
2000/05/19 07:00,    3.8,  999.0,    2.2,  999.0,  999.0,    4.2,    4.8,    4.7,  999.0,    1.2,  999.0,  999.0,  999.0,  999.0,  999.0,  999.0,   -0.1,   -2.1,  999.0,   -0.7,    0.2,    1.2,    0.5,  999.0,  999.0,    8.8,    8.4,  999.0,  999.0,    4.5,    6.4,    7.1,    5.5,    6.6,    6.9,    8.6,   10.6,   12.8,   13.0,   13.9,   13.8,   13.1,   13.6,   13.5,   13.6,   13.2
2000/05/19 07:10,  999.0,  999.0,  999.0,    3.7,    4.5,    4.3,    4.8,    4.6,    3.5,    2.2,    1.5,  999.0,  999.0,   -2.1,   -4.4,   -0.8,   -1.1,    1.5,    0.9,    1.5,   -0.3,   -0.4,    1.8,  999.0,    6.4,    8.4,    9.1,  999.0,    4.7,    4.4,    5.9,    6.6,    5.5,    6.7,    7.4,    9.6,   11.4,   13.2,   13.6,   14.9,   14.6,   14.4,   14.3,   13.8,   13.2,   13.6
2000/05/19 07:20,  999.0,    3.6,  999.0,    4.0,  999.0,    3.9,    4.3,  999.0,    3.1,  999.0,    1.4,  999.0,  999.0,   -0.7,  999.0,    0.4,    0.1,    2.1,   -0.5,   -0.8,   -0.8,   -0.7,    3.2,    5.8,  999.0,    8.6,    9.3,  999.0,    4.1,    4.2,    6.2,    6.2,    5.8,    7.1,    9.1,   10.6,   12.2,   13.9,   14.0,   14.6,   14.9,   14.7,   14.2,   13.6,   14.6,   13.9
2000/05/19 07:30,    4.6,    3.6,    3.2,    4.2,    4.7,    4.0,    4.0,    4.9,    4.2,    2.0,    0.5,  999.0,  999.0,  999.0,  999.0,   -1.8,   -2.1,  999.0,    1.3,    1.1,   -0.3,   -1.0,    2.7,  999.0,  999.0,    8.3,    9.2,    5.3,    3.8,    4.3,    6.2,    6.1,    6.0,    7.0,    9.0,   10.7,   12.4,   13.4,   13.4,   14.0,   14.8,   14.5,   14.0,   15.2,   15.3,   15.0
2000/05/19 07:40,    4.6,    4.4,    4.0,    5.0,    4.7,    4.7,  999.0,  999.0,    4.9,    2.3,    0.5,  999.0,   -2.2,  999.0,  999.0,   -2.9,   -0.5,   -0.7,   -0.8,   -0.2,   -0.9,    0.8,    5.3,  999.0,    5.7,    9.5,    7.0,  999.0,    3.9,    4.5,    6.5,    6.4,    7.3,    8.2,    9.8,   10.9,   12.7,   13.8,   13.7,   14.3,   14.6,   15.0,   14.6,   15.8,   15.9,   16.0
2000/05/19 07:50,    4.5,    4.5,    4.1,    4.7,    5.0,    5.1,    4.7,    5.0,    4.3,    2.2,  999.0,  999.0,  999.0,  999.0,   -2.0,   -1.9,   -1.8,   -1.7,   -1.7,   -1.5,   -0.4,    2.2,    5.5,    4.1,  999.0,   10.4,    7.0,  999.0,    4.0,    4.7,    6.4,    6.6,    7.0,    8.1,    9.6,   10.8,   12.3,   13.5,   14.3,   14.7,   14.5,   14.8,   14.5,   15.2,   15.6,   14.2
2000/05/19 08:00,    4.3,    4.4,    4.5,    5.1,  999.0,    5.6,    5.0,  999.0,    3.6,    2.0,  999.0,  999.0,  999.0,  999.0,  999.0,    0.6,    2.0,   -0.3,   -2.4,   -2.9,   -0.2,    3.4,  999.0,  999.0,  999.0,  999.0,    6.8,  999.0,  999.0,    4.3,    5.8,    5.9,    6.4,    7.4,    8.8,   10.5,   12.0,  999.0,   14.0,  999.0,   15.7,   16.1,   16.2,  999.0,   14.9,   14.2
2000/05/19 08:10,    4.3,    4.9,    4.4,    5.5,    5.7,    5.3,    4.6,  999.0,    3.0,    0.9,    0.3,  999.0,    0.9,  999.0,    0.2,  999.0,   -1.8,  999.0,   -2.5,   -0.7,   -0.2,    4.0,    4.1,    2.7,  999.0,    9.0,    5.5,  999.0,  999.0,    4.4,    6.0,    6.3,    6.7,    7.4,    8.9,   10.4,   11.6,   12.4,  999.0,   15.9,   16.0,   16.7,   16.8,   15.9,   15.4,   15.0
2000/05/19 08:20,  999.0,    5.5,    4.6,    5.9,    7.2,    6.7,    5.1,    4.1,  999.0,    2.2,  999.0,  999.0,  999.0,  999.0,  999.0,  999.0,  999.0,  999.0,  999.0,   -0.1,   -0.1,    2.6,    3.4,  999.0,  999.0,    9.0,    5.2,  999.0,  999.0,  999.0,    6.2,    6.6,    7.3,    7.9,    9.0,   10.3,   11.7,   13.9,   15.4,   16.4,   16.4,   16.2,   16.4,   16.6,   15.9,   14.4
2000/05/19 08:30,    4.0,    5.9,    5.5,    5.8,  999.0,    6.3,    5.2,    4.5,    3.3,    1.6,  999.0,  999.0,  999.0,   -1.7,   -2.6,   -3.8,   -3.5,  999.0,    0.4,    0.3,    0.2,    3.8,  999.0,    2.4,    6.8,    8.3,  999.0,    4.2,  999.0,    5.1,    6.4,    6.8,    7.7,    8.0,    8.9,   10.2,   12.0,   13.8,  999.0,   16.9,   17.7,   17.6,   17.7,   17.5,   16.1,   14.3
2000/05/19 08:40,    3.7,    5.8,    5.4,    5.0,  999.0,    5.7,    4.7,  999.0,    3.6,  999.0,  999.0,  999.0,  999.0,  999.0,  999.0,   -0.0,   -0.1,  999.0,  999.0,   -1.9,    0.7,    3.4,    2.1,    4.0,  999.0,    7.8,  999.0,  999.0,  999.0,    5.1,    6.1,    6.9,    7.7,    7.9,    8.4,    9.7,   11.7,   13.4,   16.2,   19.1,   19.1,   18.6,   18.4,   17.8,   16.3,   15.5
2000/05/19 08:50,  999.0,    5.1,    5.2,    5.7,    6.3,    5.5,    5.0,  999.0,    3.1,  999.0,  999.0,  999.0,  999.0,    0.8,    0.6,   -0.5,    4.7,    3.6,    2.3,    0.5,    1.5,    2.4,    1.9,    4.5,  999.0,    6.8,    4.0,    3.9,    4.1,    5.2,    5.8,    6.9,    7.4,    7.4,    8.3,    9.8,   12.1,   15.0,   18.8,   19.1,   18.3,   18.1,   17.3,   17.4,   15.9,   15.2
2000/05/19 09:00,  999.0,    4.2,    5.6,    4.7,  999.0,    5.7,    4.7,    4.4,    4.0,  999.0,  999.0,  999.0,  999.0,  999.0,   -1.3,    3.1,   -0.4,    1.7,    0.2,    0.7,    3.6,    2.8,    1.9,  999.0,  999.0,    5.6,    3.9,  999.0,  999.0,    4.8,    4.9,    6.2,    7.2,    7.4,    8.6,   10.4,   13.3,   17.7,   19.4,  999.0,   18.7,   18.5,   18.2,   17.4,   16.0,   15.8
2000/05/19 09:10,    3.3,    4.0,    3.5,    4.4,    4.7,    4.9,    4.0,  999.0,    3.5,  999.0,    3.0,    4.0,    2.7,    0.9,    1.6,  999.0,  999.0,    4.2,    2.0,    1.1,    2.0,    1.6,    2.0,  999.0,  999.0,    4.6,  999.0,  999.0,    3.9,    4.4,    4.4,    5.9,    7.2,    7.6,    8.6,   10.9,   13.9,   18.2,   19.5,   19.4,   18.4,   17.8,  999.0,   17.8,   16.2,   15.9
2000/05/19 09:20,  999.0,  999.0,    4.6,    4.9,    5.2,    4.8,    3.8,    3.6,    2.9,    4.1,    3.3,  999.0,  999.0,  999.0,    0.5,  999.0,    1.5,    1.3,    0.6,    1.7,    2.0,  999.0,    2.2,  999.0,  999.0,    4.1,    2.4,    2.8,  999.0,    3.6,    3.9,    5.3,    7.3,    7.8,    8.9,   11.3,   15.1,   19.1,   20.8,   20.1,   18.3,   17.7,   16.9,   16.4,   15.9,  999.0
2000/05/19 09:30,    3.7,  999.0,  999.0,    5.7,    5.7,    4.5,    4.3,    3.7,    3.7,    4.3,    3.6,  999.0,    2.0,    1.2,  999.0,    1.8,  999.0,  999.0,    0.5,    2.3,    1.6,  999.0,    3.7,  999.0,    7.9,    3.2,    1.8,  999.0,  999.0,    3.0,    3.6,    5.4,    7.6,    8.1,    8.9,   11.9,   16.1,   19.3,   21.3,   19.3,   19.1,   18.1,   16.1,  999.0,  999.0,  999.0
2000/05/19 09:40,  999.0,  999.0,    5.0,    6.3,    5.5,  999.0,    4.4,  999.0,    3.9,    5.7,    4.4,  999.0,    0.7,    0.5,    0.1,    3.0,    2.6,    1.2,    1.9,    2.6,    1.8,    2.0,    4.1,    8.2,    7.2,    2.7,    1.2,    1.8,  999.0,    2.3,    3.3,    6.1,    7.6,    8.0,    9.7,   13.0,   17.3,   19.8,   20.0,   18.6,   17.5,   16.9,   16.9,   16.1,   15.7,  999.0
2000/05/19 09:50,  999.0,  999.0,  999.0,  999.0,    5.0,    5.4,    3.8,    3.8,  999.0,    5.3,  999.0,    3.4,  999.0,    1.2,  999.0,    1.0,    1.3,    1.3,    2.9,    2.7,    1.2,    1.3,    5.0,    9.3,    6.4,    1.6,    0.2,    0.1,    0.2,    1.2,    2.8,    6.0,    7.7,    8.3,   10.4,   14.2,   17.7,   19.1,   19.1,   18.7,   17.6,   16.7,   16.6,   16.2,   15.8,   16.5
2000/05/19 10:00,    2.6,  999.0,  999.0,    4.9,    5.5,    5.7,  999.0,    4.5,  999.0,    6.2,  999.0,    3.1,    2.2,    0.3,  999.0,    2.1,  999.0,    2.1,    3.7,    4.0,    1.7,    2.4,    5.6,    9.1,    6.2,    0.5,   -2.3,   -2.4,   -1.8,   -1.0,   -0.1,    4.6,    7.9,    8.1,   11.1,   14.6,   18.5,   20.4,   20.2,   19.0,   17.8,   16.7,   16.4,   16.3,   15.8,   15.7
2000/05/19 10:10,  999.0,  999.0,    5.1,    4.9,    5.4,  999.0,  999.0,    3.0,    3.8,  999.0,    3.6,    3.3,    2.1,    0.9,  999.0,    1.4,    1.5,    2.4,    4.5,    3.9,    2.1,    2.6,    5.8,    9.9,    5.5,   -1.1,   -0.6,   -1.0,    0.4,   -0.4,    0.8,    5.5,    7.3,    8.1,   11.5,   15.0,   18.6,   20.2,   20.0,   18.8,   18.1,   17.8,   17.4,   16.1,   15.7,   15.7
2000/05/19 10:20,  999.0,  999.0,  999.0,  999.0,  999.0,    4.1,  999.0,  999.0,    5.5,  999.0,  999.0,    3.0,    3.4,    4.3,  999.0,    3.6,    1.9,    3.0,  999.0,  999.0,    2.0,    2.5,    7.0,  999.0,    4.3,  999.0,  999.0,  999.0,    0.9,    0.6,    2.0,    5.9,    7.4,    9.0,   12.5,   15.9,   18.9,   20.1,  999.0,   19.0,   18.3,  999.0,  999.0,  999.0,  999.0,  999.0
2000/05/19 10:30,  999.0,  999.0,  999.0,    5.0,    4.6,    4.9,    4.4,  999.0,  999.0,  999.0,    4.9,    5.0,    4.7,  999.0,    2.4,    2.7,    2.7,    3.3,    4.2,    3.6,    1.6,    2.8,  999.0,  999.0,    4.0,    0.3,   -1.1,   -1.6,    0.3,    1.4,    3.1,    5.8,    7.6,    9.9,   12.8,   16.4,   19.4,   20.6,   20.4,   19.4,   18.0,  999.0,  999.0,  999.0,  999.0,  999.0
2000/05/19 10:40,  999.0,    3.2,  999.0,    4.5,    4.6,    4.0,  999.0,  999.0,    4.1,    5.6,    3.8,    5.2,    6.4,    4.7,    4.3,    2.4,    2.9,  999.0,    4.3,    1.5,    0.7,    2.3,    6.2,    8.4,    4.0,   -1.0,   -1.1,   -0.0,    0.9,    2.4,    3.7,    6.3,    7.6,   10.3,   13.6,   17.5,   19.6,   21.3,   20.4,   19.1,   19.1,   17.7,  999.0,  999.0,  999.0,  999.0
2000/05/19 10:50,    5.6,  999.0,    5.9,    4.6,    4.9,    6.2,  999.0,    7.6,    4.2,    4.7,    5.5,    6.9,    7.7,    4.5,    4.6,    2.9,  999.0,    3.7,    4.0,    2.5,    1.3,    1.9,  999.0,    8.2,    4.6,    0.4,    0.4,   -0.4,    0.9,    2.6,    3.3,    5.6,    7.9,   10.5,   14.3,   18.0,   21.1,   21.4,   21.3,   19.7,  999.0,   18.3,  999.0,  999.0,  999.0,  999.0
2000/05/19 11:00,    4.9,    4.2,    3.6,    4.7,    5.6,    6.4,  999.0,    7.3,    5.0,    4.9,    6.4,    7.0,    4.8,    4.4,    4.0,    3.6,    3.7,    3.5,    3.6,    2.8,    1.7,    2.4,  999.0,    8.9,    4.0,    1.7,  999.0,   -0.7,    1.3,    2.8,    4.4,    5.9,    7.4,    9.8,   13.9,   18.0,   21.0,   21.3,   20.4,   20.3,   18.8,   17.7,   17.2,   15.1,  999.0,  999.0
2000/05/19 11:10,    3.7,    3.7,  999.0,    5.6,    5.5,    6.2,  999.0,    6.2,    2.4,    3.5,    5.8,    6.8,    5.5,  999.0,    4.7,    3.0,    2.3,    2.7,    2.5,    2.0,    1.5,    2.8,    7.5,    8.7,    3.2,   -0.0,   -0.6,  999.0,    1.9,    3.5,    5.1,    4.8,    7.2,   10.4,   14.6,   18.3,   21.1,   21.8,   21.4,   19.9,   18.8,   17.6,   16.4,   15.3,  999.0,  999.0
2000/05/19 11:20,  999.0,    4.0,    3.3,  999.0,    6.1,    6.5,    6.8,    7.5,    4.9,    3.8,    5.0,    4.7,    5.3,    4.7,    2.1,    2.4,    3.4,  999.0,    1.5,    1.7,    2.1,    3.7,  999.0,    8.9,    4.1,  999.0,  999.0,   -0.1,    3.3,    4.4,    4.8,    4.3,    7.1,   11.5,   15.2,   18.0,   20.7,   22.0,   21.8,   20.6,   18.6,  999.0,  999.0,  999.0,  999.0,  999.0
2000/05/19 11:30,    4.7,    3.7,    2.0,    3.9,    5.0,    4.2,    4.6,    7.1,  999.0,    3.9,    3.5,    4.8,    5.1,    3.5,    2.3,    2.0,  999.0,    2.7,    2.0,    2.5,    2.5,    3.6,    7.4,  999.0,    3.7,    1.4,  999.0,    2.4,    4.1,    5.4,    5.2,    4.2,    7.5,   12.7,   16.4,   19.3,   21.7,   22.7,   21.1,   19.5,   18.3,  999.0,  999.0,  999.0,  999.0,  999.0
2000/05/19 11:40,    6.5,    3.0,    3.0,    4.4,    6.9,    6.5,    8.2,    7.9,    6.6,  999.0,    4.5,    4.0,  999.0,    2.8,    1.4,    1.9,    3.1,    2.1,    2.4,    3.0,    3.1,    4.1,  999.0,    8.9,    3.5,    1.4,    1.3,    3.7,    4.9,    5.1,    4.4,    5.3,    9.2,   13.9,   16.5,   19.0,   22.3,   22.7,   20.8,   20.8,   19.9,   18.1,  999.0,  999.0,  999.0,  999.0
2000/05/19 11:50,    5.4,    5.5,    4.9,    5.5,    6.1,  999.0,    7.4,    7.4,    6.6,    6.1,    4.6,    3.5,  999.0,    1.7,    0.9,    2.3,    2.4,    1.6,    2.8,    3.2,    3.0,    4.1,  999.0,    8.2,    4.1,    1.0,    3.4,    3.9,    3.3,    4.5,    6.3,    8.7,   12.5,   14.5,   16.5,   20.7,   23.3,   23.4,   22.9,   22.2,   21.0,  999.0,  999.0,  999.0,  999.0,  999.0
2000/05/19 12:00,    2.9,    4.7,  999.0,    5.1,    6.5,  999.0,    6.2,    6.9,    7.1,  999.0,    6.5,    4.1,  999.0,    0.8,    0.6,    3.0,    2.3,    1.6,    2.5,    2.4,    2.2,    4.3,  999.0,    6.6,    2.7,    1.3,    2.7,    1.5,    1.6,    5.7,    7.7,   10.4,   12.6,   15.6,   19.1,   22.2,   24.0,   23.3,   22.0,   21.8,   21.3,   20.3,   18.5,   17.6,  999.0,   17.3
2000/05/19 12:10,    3.6,    3.4,    4.5,    2.2,    4.0,  999.0,    4.6,    7.3,  999.0,    7.3,    5.8,    3.5,    1.2,    0.2,    2.5,    3.7,    3.4,    2.7,    3.9,    1.7,    2.4,  999.0,    8.4,    5.9,    2.6,    2.1,    1.8,    1.1,    1.3,    5.9,    8.0,   10.5,   12.5,   15.5,   18.8,   22.2,   23.9,   23.0,   21.3,   19.9,   18.0,   17.8,   17.3,   17.3,   17.6,   17.1
2000/05/19 12:20,    2.6,    2.8,    4.7,    4.4,    4.8,    5.2,    4.8,    5.2,    8.4,    4.4,    3.4,    3.1,    1.6,    1.3,    4.4,    4.7,    4.0,    4.1,    3.9,    2.3,  999.0,  999.0,  999.0,  999.0,    4.2,    2.0,    1.7,    0.4,    0.6,    5.0,    7.4,   10.3,   12.2,   15.7,   18.8,   22.2,   23.5,   22.3,   20.9,   20.2,   19.6,   18.2,   17.9,   16.9,  999.0,  999.0
2000/05/19 12:30,    2.6,    3.9,    4.2,    4.0,    4.4,    3.2,    5.1,    5.0,    5.8,    5.4,    3.6,    2.2,    1.3,    3.0,    4.8,  999.0,  999.0,  999.0,  999.0,  999.0,  999.0,  999.0,    8.9,    8.0,    4.4,    3.4,    1.8,    0.3,    0.5,    5.3,    7.8,   10.7,   12.7,   15.5,   18.6,   22.1,   22.9,   22.3,   21.4,   21.2,   19.9,  999.0,  999.0,  999.0,  999.0,  999.0
2000/05/19 12:40,  999.0,    4.2,    2.4,   -0.2,    1.6,    0.8,  999.0,    4.9,    3.0,    4.5,  999.0,    1.3,    1.8,    4.6,    5.2,  999.0,  999.0,    5.3,  999.0,  999.0,    2.6,  999.0,    9.0,    9.5,    5.2,    3.0,    1.6,    0.1,    0.5,    5.9,    8.6,   11.2,   12.8,   15.8,   18.9,  999.0,   22.5,   21.0,  999.0,  999.0,  999.0,  999.0,  999.0,  999.0,  999.0,  999.0
2000/05/19 12:50,    2.1,    2.4,    2.9,    2.1,    2.8,    0.4,    5.1,    7.6,    3.5,    4.4,    2.2,    1.7,    2.9,    4.7,  999.0,    4.7,    5.6,  999.0,  999.0,  999.0,    3.3,  999.0,  999.0,   10.0,    6.4,    2.9,    1.9,    0.1,    1.0,    6.1,    9.2,   11.9,   13.4,   15.9,   18.7,   22.4,   23.5,   22.8,   21.9,   21.3,   19.8,   18.9,   18.9,  999.0,  999.0,  999.0
2000/05/19 13:00,  999.0,    5.8,    3.9,  999.0,  999.0,  999.0,    4.6,    4.9,    5.3,    4.5,    3.8,    3.1,    4.3,    4.2,    4.4,    4.1,  999.0,  999.0,    5.1,  999.0,    3.9,  999.0,    8.0,    9.0,    6.3,  999.0,    2.6,    0.0,    0.6,    6.1,    9.1,   11.9,   13.1,   15.3,   19.1,   24.0,   24.2,   23.9,   22.6,   21.4,  999.0,  999.0,  999.0,  999.0,  999.0,  999.0
2000/05/19 13:10,  999.0,  999.0,  999.0,    3.2,  999.0,  999.0,  999.0,  999.0,    5.2,    4.2,    3.1,    3.5,    3.9,    3.9,    4.7,  999.0,  999.0,  999.0,  999.0,  999.0,    3.6,  999.0,    7.2,  999.0,  999.0,  999.0,    2.1,   -0.6,    0.8,    6.0,    8.7,   11.5,   12.4,   14.7,   19.0,   22.9,   23.5,   23.2,   23.0,   21.8,  999.0,  999.0,  999.0,  999.0,  999.0,  999.0
2000/05/19 13:20,    3.6,    2.6,  999.0,  999.0,  999.0,  999.0,  999.0,  999.0,    4.8,  999.0,    4.0,    4.7,  999.0,  999.0,    4.6,  999.0,  999.0,  999.0,  999.0,  999.0,    3.3,  999.0,    7.5,    8.4,    4.5,  999.0,    0.9,   -0.7,    1.1,    6.4,    9.0,   11.6,   12.6,   15.0,   18.7,   21.9,   23.5,   23.3,   22.9,   23.1,   22.2,   21.7,  999.0,  999.0,  999.0,  999.0
2000/05/19 13:30,    4.3,    3.5,    3.6,  999.0,  999.0,  999.0,  999.0,    4.1,    3.6,    3.6,  999.0,  999.0,  999.0,  999.0,    4.5,    4.0,    4.3,  999.0,    3.2,    2.5,    3.7,  999.0,    9.1,    8.1,    4.0,  999.0,    0.7,   -0.4,    2.3,    6.8,    9.2,   11.9,   12.9,   15.6,   19.0,  999.0,   24.0,   23.9,   23.1,   22.5,   21.4,   20.2,   19.8,   18.5,   17.5,   17.6
2000/05/19 13:40,    3.6,  999.0,  999.0,  999.0,  999.0,  999.0,  999.0,  999.0,  999.0,  999.0,  999.0,  999.0,    1.0,    3.6,    3.0,    3.7,    3.8,    5.2,    5.0,    3.9,    3.8,  999.0,    8.1,    5.7,  999.0,  999.0,    0.3,   -1.0,    2.0,    7.0,   10.0,   12.8,   14.1,   16.2,   19.7,  999.0,   25.0,   24.7,   23.4,   21.9,   21.5,   20.8,  999.0,  999.0,  999.0,  999.0
2000/05/19 13:50,    2.5,    0.2,    1.1,    0.5,   -1.1,  999.0,    2.7,    1.4,    2.6,   -2.1,    2.6,    5.4,    2.3,    3.8,    4.4,    2.3,    4.5,    4.8,    5.2,    3.2,    3.9,    5.2,    7.2,    5.0,    3.3,    4.3,    1.5,    0.4,    2.4,    7.4,   10.0,   12.8,   14.1,   16.0,   19.3,   22.2,   23.0,   22.6,   22.9,   22.2,   21.9,  999.0,  999.0,  999.0,  999.0,  999.0
2000/05/19 14:00,    3.1,    3.6,    2.2,    3.0,    5.2,    1.5,    7.6,    7.7,    7.4,    8.8,    9.1,    5.6,    4.0,    1.6,    2.9,    3.6,    4.8,    5.6,    7.7,    4.2,    5.9,    7.2,    7.4,    6.4,    4.7,    5.6,    4.3,    1.7,    3.1,    8.1,   10.6,   13.1,   14.0,   16.8,   19.2,  999.0,  999.0,  999.0,    0.0,    0.0,    0.2,    0.0,    0.0,   -0.4,  999.0,    0.1
2000/05/19 14:10,    4.3,    3.1,    0.6,    2.3,    4.4,   11.1,   14.3,   10.7,   13.9,    9.9,    9.7,    2.0,   -2.8,   -3.5,    2.5,   -0.1,   -1.4,   -1.1,   -1.2,    2.4,    7.1,  999.0,    7.0,    6.7,    6.6,    7.8,    4.7,    1.7,    1.2,    6.6,   10.1,   12.5,   14.0,   15.6,  999.0,  999.0,  999.0,   -0.2,    0.0,    0.1,  999.0,    0.1,    0.2,   -0.0,   -0.0,    0.3
2000/05/19 14:20,  999.0,  999.0,    3.7,    4.0,    3.7,    4.7,    5.8,    5.5,    3.1,   -4.0,   -9.7,   -5.8,   -2.8,   -0.1,    4.1,    3.6,    3.9,    2.1,   -0.7,   -0.6,    0.7,    3.1,    5.9,    4.6,  999.0,    5.6,    3.6,    0.7,    0.6,    5.8,    9.3,   11.4,   13.2,   14.4,   17.8,   21.2,   23.5,   23.2,  999.0,  999.0,  999.0,   -0.2,   -0.2,    0.0,   -0.0,   -0.1
2000/05/19 14:30,  -10.2,   -9.2,   -9.9,   -5.1,    1.0,    3.5,    2.9,    3.4,   -0.4,    1.5,    1.1,    2.2,    4.6,    4.6,    6.5,   16.9,    8.0,    3.1,    4.5,    6.7,    7.0,    3.9,    5.5,    6.6,    6.1,    5.3,    5.4,    2.6,    1.0,    5.4,   10.0,   11.6,   11.1,   10.9,   14.0,  999.0,  999.0,  999.0,  999.0,   -0.1,   -0.3,   -0.3,   -0.1,   -0.3,   -0.5,   -0.0
2000/05/19 14:40,  999.0,  999.0,  999.0,    3.2,   -4.3,   -3.6,    0.1,   -0.3,    1.3,   -0.8,    1.0,   -1.9,    2.3,    2.0,    3.6,    5.8,    6.3,    4.8,    4.3,  999.0,  999.0,  999.0,    2.9,  999.0,    5.1,  999.0,  999.0,    2.8,    1.4,    4.8,    9.5,   11.2,   12.9,   13.6,   17.1,   20.7,   24.7,  999.0,  999.0,  999.0,    0.7,  999.0,    0.2,  999.0,  999.0,  999.0
2000/05/19 14:50,   -2.1,  999.0,  999.0,    0.8,  999.0,    4.2,    4.3,    6.7,  999.0,  999.0,    5.1,    5.7,    6.0,    5.5,    7.1,    7.0,    6.1,    5.4,    4.5,    5.1,    5.3,    6.8,    8.3,    5.4,    5.0,    3.9,  999.0,    2.5,    2.3,    5.0,    9.8,   11.8,   13.0,   13.6,   17.5,   21.6,   25.6,   25.5,  999.0,  999.0,  999.0,  999.0,  999.0,  999.0,  999.0,  999.0
2000/05/19 15:00,   -4.1,   -1.1,  999.0,  999.0,  999.0,    3.7,    3.4,    3.2,  999.0,  999.0,    2.8,    5.5,  999.0,    7.7,    7.7,    6.9,    7.1,    6.2,    5.7,    5.6,    7.0,    8.1,    8.2,    6.2,  999.0,  999.0,  999.0,    3.6,    3.6,    6.0,    9.5,   11.0,   12.1,   13.9,   18.1,  999.0,  999.0,  999.0,  999.0,  999.0,  999.0,  999.0,  999.0,    0.0,    0.0,   -0.1
2000/05/19 15:10,   -2.4,   -3.3,    0.3,   -0.6,  999.0,    4.1,    5.1,    7.2,    9.6,   13.9,   11.3,   12.3,   12.8,    9.6,    7.8,    7.7,    7.5,    6.9,    5.0,    5.6,  999.0,    7.9,  999.0,    5.9,  999.0,    5.7,    6.3,    3.9,    4.7,    7.8,   10.7,   11.3,   11.4,   14.7,   18.9,   23.2,  999.0,  999.0,  999.0,  999.0,  999.0,  999.0,  999.0,    0.2,   -0.2,   -0.4
2000/05/19 15:20,    2.8,    0.8,    0.6,   -1.7,    0.3,    0.8,    5.4,    6.8,    6.2,    7.3,    3.2,   -3.6,    3.0,    8.6,    7.4,    5.1,    6.0,    4.5,    4.3,    5.0,    7.1,    8.1,    7.0,  999.0,  999.0,    5.8,    5.4,    4.0,    4.4,    6.8,    9.6,   11.5,   11.7,   15.8,   20.3,   24.9,  999.0,  999.0,   -0.4,   -0.2,    0.0,   -0.2,   -0.7,   -0.5,  999.0,    0.0
2000/05/19 15:30,   -0.5,   -0.6,    1.2,    4.8,    4.9,    5.1,    5.7,    5.9,    5.7,    1.6,    3.7,   -0.8,   -2.6,    2.4,    5.3,    6.4,    7.1,    5.2,    6.5,    7.1,    6.4,    8.1,    9.4,    7.2,    7.4,    5.3,    4.6,    3.8,    4.6,    7.7,   11.3,   13.0,   14.1,   17.6,  999.0,  999.0,  999.0,  999.0,  999.0,    0.3,   -0.5,    0.3,   -0.3,    0.2,    0.2,    0.6
2000/05/19 15:40,    0.3,   -0.9,   -0.5,    1.7,    3.0,   -0.1,    3.1,    3.8,    7.1,    3.9,    2.3,    1.0,    1.8,    3.3,    5.1,    6.1,    6.7,    5.8,    4.5,    6.1,    7.4,    6.6,    7.0,    7.6,    6.9,    5.5,    4.8,    3.9,    3.3,    6.8,   10.0,   13.0,   13.9,  999.0,   21.9,  999.0,   27.2,   27.7,  999.0,  999.0,  999.0,   -0.1,    0.9,    0.6,  999.0,    0.2
2000/05/19 15:50,   -1.3,   -0.5,   -1.2,   -0.6,   -0.4,    1.3,    3.9,    1.1,    5.1,    5.3,    4.3,  999.0,    4.1,    6.1,    6.9,    6.6,    5.5,    4.7,    5.1,    8.0,    8.2,  999.0,    7.8,  999.0,  999.0,    5.5,    5.6,    3.5,    3.5,    6.7,   11.3,   13.4,   14.2,   17.9,  999.0,  999.0,  999.0,  999.0,  999.0,  999.0,  999.0,  999.0,   -0.0,   -0.1,   -0.0,    0.3
2000/05/19 16:00,  999.0,    0.2,   -4.0,   -1.7,   -0.1,    3.1,    3.0,    4.0,    4.6,  999.0,    4.5,  999.0,  999.0,  999.0,    7.6,    6.5,  999.0,  999.0,  999.0,  999.0,    5.9,    7.4,  999.0,  999.0,    5.5,    5.4,    5.1,    3.0,    3.3,    6.8,   11.6,   12.6,   14.4,  999.0,  999.0,  999.0,  999.0,  999.0,    0.3,   -0.3,   -0.2,   -0.1,   -0.4,   -0.0,   -0.0,    0.2
2000/05/19 16:10,    3.3,    2.2,    2.0,    0.5,   -1.5,   -1.2,   -1.3,   -0.5,   -0.8,    2.9,    1.1,    4.4,    3.9,  999.0,    5.9,    5.4,    4.5,    3.8,  999.0,  999.0,    5.0,  999.0,  999.0,  999.0,  999.0,    5.5,    3.2,    1.4,    4.0,    7.6,   12.1,   12.8,   14.6,   18.6,   23.1,  999.0,  999.0,  999.0,  999.0,  999.0,  999.0,   -5.7,    0.5,    0.1,   -0.0,    0.3
2000/05/19 16:20,    2.9,  999.0,    1.6,    1.0,    0.1,   -1.1,    1.4,    3.4,    3.9,    1.6,    5.3,    3.5,    5.7,    7.1,    6.6,    5.3,    4.1,    4.4,    6.1,    5.3,    4.1,  999.0,    3.7,    5.3,    5.7,    3.7,    2.6,    3.5,    5.5,    8.2,   12.1,   14.1,   16.0,  999.0,  999.0,  999.0,  999.0,  999.0,  999.0,  999.0,    0.0,    0.3,    0.0,   -0.0,   -0.2,   -0.0
2000/05/19 16:30,    4.6,    2.4,    1.1,    1.0,   -1.9,    0.1,    2.0,    4.0,    3.8,    3.1,    3.6,    5.3,    5.1,    7.1,    5.9,    3.6,    2.7,  999.0,  999.0,  999.0,  999.0,  999.0,  999.0,  999.0,  999.0,    6.6,    6.0,    5.2,    5.5,    8.8,   12.8,   14.2,   16.9,   20.1,   24.2,  999.0,  999.0,  999.0,  999.0,  999.0,   -0.6,    0.4,    0.6,   -0.0,   -0.2,    0.2
2000/05/19 16:40,    4.8,    3.1,    1.6,    2.6,    2.4,    0.6,    0.4,    1.7,    1.9,    4.9,    5.8,    4.8,    5.7,    6.6,    6.0,    3.4,    2.5,    2.5,    3.6,    4.1,    4.2,    5.2,  999.0,  999.0,    5.9,    5.2,    5.9,    4.3,    5.1,    6.9,   10.1,   14.0,   16.3,   19.6,  999.0,  999.0,  999.0,  999.0,  999.0,  999.0,  999.0,  999.0,   -0.3,  999.0,    0.6,    0.3
2000/05/19 16:50,    5.4,    2.5,   -1.1,    2.7,    3.1,    3.7,    3.2,    1.7,    3.3,    3.4,    4.6,    4.1,    3.5,    3.4,    2.3,    1.4,    1.5,    2.9,    4.1,    4.8,    3.5,    2.9,    4.1,    5.9,  999.0,  999.0,    6.6,    3.4,    4.3,    7.3,   10.4,   13.7,   15.2,   19.3,   22.7,   26.4,  999.0,  999.0,  999.0,  999.0,  999.0,   -0.1,   -0.0,    0.1,   -0.1,    0.2
2000/05/19 17:00,    4.4,    1.8,   -0.6,   -0.2,   -0.5,    1.1,    1.5,    2.1,    2.5,    2.4,    1.7,    0.9,    2.7,    3.1,    2.6,    3.8,    3.7,    4.0,    3.8,    4.2,    3.9,    4.1,  999.0,    6.3,  999.0,  999.0,    7.7,    4.5,    6.1,    9.2,   11.4,   12.5,   15.5,   19.6,   23.3,   27.0,  999.0,  999.0,  999.0,   -0.5,  999.0,  999.0,    0.4,  999.0,   -0.1,   -0.3
2000/05/19 17:10,    3.5,    1.9,    0.1,    0.1,    0.0,    1.5,    1.2,    2.0,  999.0,    2.5,    4.1,    3.8,    3.2,    2.6,    3.2,    4.2,    4.5,    3.3,  999.0,  999.0,  999.0,  999.0,  999.0,  999.0,  999.0,  999.0,    7.3,  999.0,    6.5,    8.5,   10.2,   13.2,   16.5,   19.6,  999.0,  999.0,  999.0,  999.0,  999.0,  999.0,  999.0,  999.0,  999.0,  999.0,   -0.5,    0.1
2000/05/19 17:20,  999.0,  999.0,    0.1,  999.0,  999.0,  999.0,    1.0,    2.5,    2.4,    2.5,    2.5,    3.7,    3.3,    3.5,    4.8,    6.2,    6.5,    4.8,    3.2,  999.0,    3.5,    4.8,    5.2,  999.0,  999.0,    7.5,    6.8,    5.5,    6.5,    6.5,   10.1,   13.1,   16.2,   18.6,   22.9,   26.7,   27.4,  999.0,  999.0,  999.0,  999.0,  999.0,    0.2,  999.0,  999.0,   -0.1
2000/05/19 17:30,    5.9,    4.3,    0.4,    0.6,    0.5,    1.5,    2.4,    2.4,    1.4,  999.0,    3.0,    2.6,    2.3,    2.9,    2.8,    3.9,    4.9,    4.2,    2.9,    3.2,    2.8,    4.4,  999.0,    4.9,  999.0,    8.0,    7.3,    5.1,    5.7,    5.3,    8.4,   12.9,   15.5,   17.3,   21.2,   25.4,   27.7,  999.0,  999.0,  999.0,  999.0,   -0.5,  999.0,   -0.5,  999.0,   -0.0
2000/05/19 17:40,    6.1,    5.5,    1.7,    0.6,    1.4,    1.6,    0.9,   -0.2,   -0.6,    0.2,    0.5,    0.9,    1.3,    1.5,    2.2,    2.9,    3.5,    4.0,  999.0,    3.9,  999.0,    4.8,    4.8,    4.4,  999.0,  999.0,  999.0,    6.4,    5.3,    4.9,    8.5,   13.2,   15.4,   16.7,   20.7,   25.9,   28.1,   28.1,   27.4,  999.0,  999.0,  999.0,  999.0,  999.0,  999.0,  999.0
2000/05/19 17:50,    4.7,    3.6,    1.8,   -0.6,   -2.4,   -1.2,   -1.4,   -0.2,   -0.3,    0.2,   -0.9,    0.9,    0.0,    0.4,    0.6,   -0.3,   -1.1,    0.3,    0.6,  999.0,    3.6,    4.6,    5.0,    4.0,    4.7,    5.9,    8.3,    7.2,    4.8,    4.4,    7.5,   12.3,   14.0,   14.8,   19.0,   24.2,   27.0,   27.8,   27.4,   26.3,  999.0,  999.0,  999.0,  999.0,   -0.4,    0.1
2000/05/19 18:00,    5.4,    5.0,    2.2,    0.6,    0.4,    0.7,    0.7,    0.8,    1.1,    0.1,   -0.3,   -0.8,   -2.1,    1.4,    1.0,    0.9,    0.8,    2.3,  999.0,  999.0,  999.0,  999.0,  999.0,  999.0,  999.0,  999.0,  999.0,    6.3,    4.8,    5.1,    7.1,   10.7,   13.7,   14.4,   17.4,   22.8,   26.8,   27.7,   27.3,   25.7,  999.0,  999.0,  999.0,  999.0,  999.0,  999.0
2000/05/19 18:10,    7.3,    6.1,    4.4,    2.6,    3.5,    2.5,    3.2,    2.5,    1.2,   -2.9,   -1.8,    0.1,   -0.8,   -0.7,   -1.7,    0.3,    0.9,    1.3,  999.0,  999.0,    3.8,    4.9,  999.0,    3.9,    5.3,    6.8,    6.9,    6.0,    4.9,    5.6,    7.2,   11.3,   13.7,   14.3,   18.3,   22.8,   26.2,   27.6,   28.2,   26.5,   25.3,   24.3,   23.0,  999.0,  999.0,  999.0
2000/05/19 18:20,    8.2,    7.4,    5.3,    3.0,    2.5,    2.7,    0.4,    0.3,    0.4,   -2.1,   -6.4,   -6.2,   -4.3,   -4.6,   -2.7,   -0.6,    0.0,    3.2,  999.0,  999.0,  999.0,    4.4,  999.0,  999.0,  999.0,  999.0,    7.2,    6.4,    5.2,    5.3,    8.0,   10.6,   13.3,   14.4,   18.1,  999.0,   26.2,   27.6,   28.7,   26.9,   25.4,   23.9,   22.8,   22.3,   21.9,   21.2
2000/05/19 18:30,    6.9,    8.8,    7.2,    5.7,    4.4,    2.5,    0.4,    0.3,    0.7,   -1.8,   -3.6,   -2.9,   -4.1,   -2.4,   -0.6,   -0.5,    0.3,    1.8,  999.0,    3.7,    5.3,    5.1,  999.0,  999.0,    6.0,    4.6,    6.1,    5.6,    4.8,    4.6,    7.9,    9.7,   11.5,   13.5,   16.9,   21.9,   25.5,   27.0,   27.8,   26.3,   26.1,   24.5,  999.0,  999.0,  999.0,  999.0
2000/05/19 18:40,    9.1,    8.0,    5.1,    3.0,    2.2,    2.7,    2.4,    1.2,    2.6,    0.9,    3.4,    2.7,    0.9,   -0.3,    0.1,   -0.7,   -0.5,    0.4,    1.1,  999.0,    4.3,    5.6,    5.3,    5.3,    4.9,    4.5,    5.7,    6.2,    4.7,    5.1,    7.4,    9.8,   11.5,   13.8,   17.2,   22.1,   25.6,   27.2,   27.8,   26.7,   25.0,   24.1,   23.4,   22.8,  999.0,  999.0
2000/05/19 18:50,    7.1,    7.3,    8.0,    5.0,    2.8,    1.4,   -0.6,   -2.0,   -1.4,   -1.2,   -0.6,   -0.2,   -1.3,   -2.0,   -1.9,   -1.6,   -1.1,   -0.4,    1.7,  999.0,  999.0,  999.0,  999.0,  999.0,    5.9,  999.0,    7.6,    7.7,    5.6,    5.6,    8.3,   12.1,   12.7,   14.3,   17.7,   22.8,   27.0,   28.6,   28.8,   28.4,   27.2,   26.7,   24.1,  999.0,  999.0,  999.0
2000/05/19 19:00,    6.7,    6.6,    6.3,    2.5,    1.0,    2.4,    3.4,    1.5,   -1.0,   -1.3,   -1.1,   -1.4,  999.0,  999.0,    1.2,    0.1,    1.2,    1.1,    2.0,    2.6,    3.6,  999.0,  999.0,  999.0,  999.0,  999.0,    9.1,    7.0,    4.8,    5.1,    9.3,   12.5,   13.9,   15.0,   18.6,   22.9,   27.5,   29.5,   29.6,   29.0,  999.0,  999.0,  999.0,  999.0,  999.0,  999.0
2000/05/19 19:10,    5.7,    5.3,    6.5,    6.7,    4.6,    3.6,    3.6,    1.7,  999.0,  999.0,    3.0,    3.9,    4.2,    4.5,    5.1,    6.1,  999.0,  999.0,  999.0,    3.2,  999.0,  999.0,  999.0,  999.0,    4.9,    7.9,    8.8,    5.9,    4.5,    6.5,    9.5,   13.1,   14.7,   16.2,   18.7,   22.8,   27.4,   29.6,   29.5,   29.1,  999.0,  999.0,  999.0,  999.0,  999.0,   -0.0
2000/05/19 19:20,    5.7,    4.3,    4.7,    6.0,    5.2,    3.9,    3.5,    4.2,    1.1,  999.0,    5.4,    7.2,    5.7,    4.9,    5.3,    4.8,    3.9,    3.2,    3.4,    3.2,  999.0,  999.0,    7.3,  999.0,  999.0,    9.3,    9.9,    6.5,    4.9,    7.1,   10.9,   13.3,   14.5,   16.1,   17.0,   21.6,   26.7,   28.6,   29.2,  999.0,  999.0,  999.0,  999.0,  999.0,    0.0,   -0.3
2000/05/19 19:30,    3.6,    2.9,    4.0,    5.1,    6.5,    6.9,    7.4,    6.6,    5.8,    3.5,    3.9,    3.4,    3.8,  999.0,    3.7,  999.0,    2.4,    2.1,    2.9,    3.9,  999.0,  999.0,    7.0,    8.3,    8.6,   10.2,    9.6,    6.5,    6.3,    8.4,   12.3,   14.5,   15.8,   15.4,   15.7,  999.0,   27.2,  999.0,  999.0,  999.0,  999.0,  999.0,  999.0,  999.0,   -0.2,    0.1
2000/05/19 19:40,    3.1,    1.5,    1.2,    0.9,    1.5,    1.2,    2.4,    3.8,    4.3,    4.3,    2.9,    2.4,    2.2,    2.0,    1.9,    2.7,  999.0,    3.8,  999.0,  999.0,  999.0,  999.0,    7.3,    7.6,    8.8,    9.5,   10.3,    7.0,    7.7,    9.9,   12.4,   13.7,   15.6,   14.6,   16.2,   20.1,   24.5,   27.6,   29.3,   29.1,  999.0,  999.0,    0.9,    0.0,    0.2,    0.1
2000/05/19 19:50,    3.2,    1.2,    0.8,    1.3,    1.8,    1.1,    1.2,  999.0,  999.0,  999.0,    4.2,  999.0,  999.0,  999.0,    2.9,    2.7,    2.9,    3.4,    4.3,  999.0,    6.8,    6.7,  999.0,  999.0,    8.0,    9.8,    9.0,    7.5,    6.9,    9.8,   12.4,   14.1,   14.2,   13.9,   15.5,   18.3,   22.6,   25.9,   27.8,   28.4,   22.0,   20.3,   23.9,   22.3,   22.4,  999.0
2000/05/19 20:00,    3.2,    0.7,   -0.1,    0.6,    0.3,    0.3,    1.8,    3.2,  999.0,    4.3,  999.0,  999.0,  999.0,  999.0,    3.2,    3.1,    3.1,    3.6,    4.2,    4.9,    6.3,    7.0,    6.8,  999.0,  999.0,    9.2,    7.5,    6.7,    7.0,   11.2,   14.4,   15.8,   15.6,   16.0,   16.7,   18.4,   22.3,   26.1,   27.4,   28.2,   27.8,   26.7,   25.4,   23.7,   21.8,   20.2
2000/05/19 20:10,    4.4,    0.7,    0.4,    1.1,    1.3,    1.1,    2.3,    3.8,    6.4,    6.4,    6.1,  999.0,  999.0,  999.0,  999.0,    4.0,    4.0,    4.5,  999.0,  999.0,    5.5,    7.4,    7.3,    7.0,    6.8,    9.2,    7.2,    4.9,    7.3,   11.3,   15.0,   15.8,   15.6,   15.3,   16.5,   20.0,   23.9,   26.5,   27.2,   27.7,   27.3,   26.7,   24.9,   23.1,   20.7,   19.1
2000/05/19 20:20,    4.5,    1.4,    1.8,    1.6,    1.6,    0.6,    2.4,    4.8,    5.8,    6.0,  999.0,  999.0,  999.0,  999.0,    5.7,    4.9,    4.7,    5.2,  999.0,  999.0,  999.0,    6.5,    7.6,    8.8,    8.5,    9.1,    7.7,    6.3,    7.5,   11.3,   16.5,   16.3,   15.5,   14.9,   16.1,   19.5,   23.4,   26.5,   27.7,   28.1,   27.7,   26.4,   24.0,   21.1,   20.6,   18.1
2000/05/19 20:30,    4.9,    2.5,    0.9,    0.9,    0.0,   -0.5,    1.6,    3.4,  999.0,  999.0,  999.0,  999.0,    5.1,  999.0,  999.0,  999.0,  999.0,  999.0,  999.0,  999.0,  999.0,  999.0,    5.5,  999.0,  999.0,    7.6,    6.9,    7.2,    7.8,   10.4,   15.0,   16.0,   16.0,   15.7,   16.6,   20.0,   24.0,   27.2,   28.1,   28.0,  999.0,  999.0,  -20.6,  999.0,  999.0,  999.0
2000/05/19 20:40,    5.7,    2.6,    1.6,    1.0,    1.6,    0.7,    2.3,    3.7,  999.0,  999.0,  999.0,  999.0,  999.0,  999.0,    5.7,  999.0,  999.0,    6.7,  999.0,  999.0,  999.0,  999.0,  999.0,  999.0,  999.0,    8.7,    8.3,    7.3,    8.5,   11.8,   15.7,   16.2,   15.6,   15.2,   16.2,   20.2,   25.0,   27.8,   28.5,  999.0,  999.0,  999.0,  999.0,  999.0,  999.0,  999.0
2000/05/19 20:50,    5.0,    1.9,    2.1,    1.3,    0.5,    0.1,    1.2,    2.6,  999.0,  999.0,    5.3,  999.0,  999.0,  999.0,  999.0,  999.0,    7.7,  999.0,  999.0,  999.0,  999.0,  999.0,    6.3,    7.7,    7.6,    8.5,    8.2,    6.9,    8.2,   12.0,   16.0,   16.9,   16.3,   15.8,   16.8,   21.7,   26.8,   27.7,   28.1,   28.9,   27.4,   26.1,   24.4,  999.0,  999.0,  999.0
2000/05/19 21:00,    3.6,    1.7,    1.0,    0.3,    1.0,    1.6,    2.2,    3.7,  999.0,  999.0,  999.0,  999.0,  999.0,  999.0,  999.0,  999.0,  999.0,  999.0,  999.0,  999.0,  999.0,  999.0,    6.7,    7.6,    8.1,    9.6,    7.9,    6.9,    7.5,   11.8,   16.8,   17.5,   17.5,   17.0,   17.0,   21.6,   26.4,   27.5,   29.2,  999.0,  999.0,  999.0,  999.0,  999.0,  999.0,  999.0
2000/05/19 21:10,    2.5,    1.1,    0.9,    0.8,    0.7,    1.4,    2.8,    4.2,  999.0,  999.0,  999.0,  999.0,  999.0,  999.0,    8.4,    8.4,    7.7,  999.0,    6.1,  999.0,  999.0,    6.1,    7.0,  999.0,    9.6,    9.8,    8.6,    7.2,    7.6,   11.7,   15.7,   16.8,   17.1,   16.6,   17.0,   20.5,   26.1,   28.1,   28.9,  999.0,  999.0,  999.0,  999.0,  999.0,  999.0,  999.0
2000/05/19 21:20,    1.1,    0.6,    0.5,    1.5,    1.9,    0.8,    1.4,    3.7,  999.0,    6.7,  999.0,  999.0,  999.0,  999.0,  999.0,  999.0,  999.0,  999.0,  999.0,  999.0,  999.0,  999.0,    5.9,    7.9,  999.0,    9.8,    9.3,    7.6,    7.7,   10.5,   15.6,   17.0,   17.3,   17.6,   17.9,   20.9,   25.2,   27.9,  999.0,  999.0,  999.0,  999.0,  999.0,  999.0,  999.0,  999.0
2000/05/19 21:30,    1.5,    1.8,    2.5,    2.9,    0.6,    0.3,    1.8,    3.7,    5.9,    5.7,    6.9,  999.0,  999.0,    7.9,  999.0,  999.0,    6.2,  999.0,    5.9,  999.0,  999.0,  999.0,  999.0,    9.1,   10.9,   10.4,    8.4,    8.0,    7.7,   12.2,   16.5,   18.7,   18.6,   18.6,   18.3,   19.2,   23.9,  999.0,  999.0,  999.0,  999.0,  999.0,  999.0,  999.0,  999.0,  999.0
2000/05/19 21:40,    1.3,    1.7,    2.5,    2.1,   -0.0,    0.6,    2.1,    4.5,    5.6,    6.8,    6.5,  999.0,  999.0,  999.0,  999.0,  999.0,  999.0,  999.0,  999.0,  999.0,  999.0,  999.0,  999.0,    9.4,   10.3,   11.5,    8.7,    7.4,    8.0,   12.6,   17.7,   19.1,   19.2,   18.4,   18.6,   18.9,  999.0,  999.0,  999.0,  999.0,  999.0,  999.0,  999.0,  999.0,  999.0,  999.0
2000/05/19 21:50,    1.3,    1.6,    1.6,    1.5,    0.7,    2.1,    3.2,    4.5,  999.0,  999.0,    6.5,  999.0,  999.0,    7.2,    7.0,  999.0,  999.0,  999.0,  999.0,    6.1,    6.5,  999.0,    9.1,    8.9,    9.9,   11.2,    9.1,    7.7,    8.8,   14.1,   17.7,   19.4,   19.1,   19.3,   19.1,   19.5,   21.9,  999.0,  999.0,  999.0,  999.0,  999.0,  999.0,  999.0,  999.0,  999.0
2000/05/19 22:00,    1.4,    0.9,    1.6,    1.8,    1.3,    1.9,    4.1,    5.7,  999.0,    8.7,  999.0,    7.9,  999.0,  999.0,  999.0,  999.0,  999.0,  999.0,  999.0,    7.1,    6.7,  999.0,  999.0,    8.4,  999.0,  999.0,    9.6,    7.7,    8.2,   12.8,   17.5,   18.8,   19.3,   20.2,   20.9,   21.1,   22.9,  999.0,  999.0,  999.0,  999.0,  999.0,  999.0,  999.0,  999.0,  999.0
2000/05/19 22:10,    1.5,    0.7,    1.2,    1.7,    2.6,    2.9,    3.6,    6.4,    7.5,  999.0,    8.1,    7.1,    7.1,    6.2,  999.0,  999.0,  999.0,  999.0,  999.0,  999.0,    7.4,  999.0,    7.0,    9.4,  999.0,   11.8,    9.5,    7.4,    7.2,   11.0,   15.7,   18.1,   19.4,   20.1,   20.4,   20.6,   22.2,  999.0,  999.0,  999.0,  999.0,  999.0,  999.0,  999.0,  999.0,  999.0
2000/05/19 22:20,    1.2,    1.4,    1.5,    2.0,    1.9,    2.8,    5.7,    6.3,    6.3,    6.7,    7.6,    6.3,    6.8,    6.9,    6.9,  999.0,  999.0,  999.0,  999.0,  999.0,    6.4,    6.8,  999.0,    9.9,  999.0,   11.3,    9.4,    7.8,    7.4,   10.0,   15.9,   18.9,   19.7,   20.0,   19.7,   20.2,   21.7,   26.6,  999.0,  999.0,  999.0,  999.0,  999.0,  999.0,  999.0,  999.0
2000/05/19 22:30,    1.2,    1.1,    1.7,    1.1,    2.0,    4.1,    5.7,    7.1,    5.3,    4.1,    6.7,    5.8,    6.7,    8.4,  999.0,  999.0,  999.0,  999.0,  999.0,  999.0,  999.0,  999.0,  999.0,   11.0,   10.9,   10.0,    9.8,    8.3,    7.4,    9.7,   15.0,   18.8,   19.4,   19.4,   20.0,   22.2,   24.0,   27.3,   29.9,  999.0,  999.0,  999.0,  999.0,  999.0,  999.0,  999.0
2000/05/19 22:40,    1.4,    0.9,    1.8,    1.2,    2.1,    3.3,    3.1,    4.5,    8.1,  999.0,    8.8,   10.8,  999.0,  999.0,  999.0,  999.0,  999.0,  999.0,  999.0,  999.0,  999.0,  999.0,  999.0,  999.0,  999.0,  999.0,    9.5,    8.2,    8.6,    9.8,   13.7,   18.1,   19.5,   19.4,   19.7,   22.6,   24.5,   27.4,   29.6,  999.0,  999.0,  999.0,  999.0,  999.0,  999.0,  999.0
2000/05/19 22:50,  999.0,    0.3,    1.2,    0.6,    1.2,    2.8,    4.7,    6.5,  999.0,  999.0,   10.1,  999.0,  999.0,  999.0,  999.0,  999.0,  999.0,    1.7,  999.0,  999.0,  999.0,  999.0,    8.5,  999.0,    9.8,   11.5,   10.3,    9.1,    8.7,    9.3,   13.6,   16.9,   19.3,   20.7,   20.6,   22.3,   24.9,   28.1,  999.0,   28.8,   28.1,  999.0,  999.0,  999.0,  999.0,  999.0
2000/05/19 23:00,    1.9,    1.8,    1.4,    1.8,    2.2,    4.5,    6.9,    8.0,  999.0,    8.4,    8.7,    9.9,  999.0,  999.0,  999.0,  999.0,  999.0,  999.0,    2.3,  999.0,    5.0,  999.0,  999.0,  999.0,   10.1,   12.9,   12.6,   10.0,    8.3,    9.2,   12.8,   16.8,   18.9,   21.1,   21.5,   22.8,  999.0,   28.5,   29.6,  999.0,  999.0,  999.0,  999.0,   28.5,   27.2,   25.0
2000/05/19 23:10,    1.4,    2.0,    2.0,    2.3,    2.3,    5.1,    7.6,    9.1,  999.0,    8.9,  999.0,  999.0,  999.0,  999.0,  999.0,  999.0,  999.0,  999.0,  999.0,  999.0,  999.0,  999.0,  999.0,    6.4,   10.3,   14.6,   11.9,    9.5,    8.2,    8.9,   12.3,   14.4,   18.4,   21.3,   22.3,   24.8,   27.4,   29.0,  999.0,  999.0,  999.0,   29.6,   28.3,   26.3,   24.3,   22.6
2000/05/19 23:20,    1.8,    1.7,    1.9,    2.5,    3.1,    5.8,    7.4,    6.8,  999.0,    5.9,  999.0,  999.0,  999.0,  999.0,  999.0,  999.0,  999.0,  999.0,  999.0,  999.0,  999.0,  999.0,  999.0,    6.1,   10.1,   14.7,   12.4,    9.3,    7.3,    9.1,   11.4,   15.7,   20.1,   21.6,   22.2,   25.5,   27.7,   29.1,  999.0,  999.0,  999.0,  999.0,  999.0,  999.0,  999.0,  999.0
2000/05/19 23:30,    1.4,    1.0,    1.0,    1.9,    3.8,    5.5,    5.6,    5.6,    5.8,    5.6,  999.0,  999.0,  999.0,  999.0,  999.0,  999.0,  999.0,  999.0,  999.0,    4.1,  999.0,  999.0,    5.1,    6.8,   12.7,   15.1,   11.3,    8.4,    7.1,    8.5,   11.0,   16.5,   22.1,   22.2,   23.0,   25.4,   27.9,   28.7,  999.0,  999.0,  999.0,  999.0,  999.0,  999.0,  999.0,  999.0
2000/05/19 23:40,    2.0,    1.3,    0.4,    1.2,    2.7,    3.5,    4.2,    5.2,    5.9,  999.0,  999.0,  999.0,  999.0,  999.0,  999.0,  999.0,  999.0,  999.0,  999.0,  999.0,  999.0,  999.0,    6.7,   11.2,   14.7,   13.0,    9.2,    7.4,    7.9,    8.7,   12.3,   16.2,   20.5,   22.4,   22.8,  999.0,   28.1,  999.0,  999.0,  999.0,  999.0,  999.0,  999.0,  999.0,  999.0,  999.0
2000/05/19 23:50,    2.5,    1.4,    0.9,    1.9,    3.7,    3.6,    3.8,    5.4,    6.5,  999.0,  999.0,    8.5,  999.0,  999.0,  999.0,  999.0,  999.0,    2.4,    2.7,  999.0,  999.0,  999.0,    8.8,   13.4,   13.0,   10.3,    9.0,    7.9,    7.2,    8.7,   12.4,   16.6,   21.7,   22.9,   22.8,   25.1,   28.6,   29.7,  999.0,  999.0,  999.0,   29.1,   27.6,   26.5,   24.8,   24.2
